This demonstration page uses our WeatherBlox Daily Observations layout. Learn more.

Left ArrowRight Arrow

39.92423, -83.80882

Hourly Observations for October 10, 2020

Temp ( °F °C ) Dew Point ( °F °C ) Humidity (%) Winds ( mph kmh ) Pressure ( in mb ) Visibility ( mi km ) Precip ( " mm )
12:56 am 00:56 Clear 65 18.3 62 16.7 90 90 SW 9 15 29.99 1016 10 16.0934 0 0
1:56 am 01:56 Clear 64 17.8 62 16.7 93 93 SW 7 11 29.98 1015 10 16.0934 0 0
2:56 am 02:56 Clear 63 17.2 63 17.2 100 100 SSW 7 11 29.98 1015 10 16.0934 0 0
3:56 am 03:56 Clear 62 16.7 62 16.7 100 100 SSW 3 6 29.98 1015 10 16.0934 0 0
4:56 am 04:56 Clear 61 16.1 61 16.1 100 100 SSW 5 7 29.98 1015 10 16.0934 0 0
5:56 am 05:56 Cloudy 61 16.1 61 16.1 100 100 W 5 7 30 1016 10 16.0934 0 0
6:56 am 06:56 Cloudy 61 16.1 61 16.1 100 100 SSW 5 7 30.01 1016 10 16.0934 0 0
7:56 am 07:56 Mostly Cloudy 60 15.6 60 15.6 100 100 Calm 30.01 1016 10 16.0934 0 0
8:56 am 08:56 Mostly Cloudy 62 16.7 62 16.7 100 100 SSW 8 13 30.01 1016 10 16.0934 0 0
9:56 am 09:56 Cloudy 65 18.3 63 17.2 93 93 SW 10 17 30.01 1016 10 16.0934 0 0
10:10 am 10:10 Cloudy 64 18 63 17 94 94 SW 9 15 29.99 1016 10 16.0934 0 0
10:56 am 10:56 Cloudy 66 18.9 63 17.2 90 90 SW 12 19 30.01 1016 10 16.0934 0 0
11:56 am 11:56 Cloudy 66 18.9 63 17.2 90 90 SW 10 17 30 1016 10 16.0934 0 0
12:22 pm 12:22 Cloudy 66 19 64 18 94 94 SW 10 17 29.99 1015 10 16.0934 0 0
12:56 pm 12:56 Cloudy 69 20.6 64 17.8 84 84 WSW 10 17 29.98 1015 10 16.0934 0 0
1:56 pm 13:56 Cloudy 71 21.7 64 17.8 79 79 SW 8 13 29.97 1015 10 16.0934 0 0
2:56 pm 14:56 Cloudy 71 21.7 65 18.3 81 81 SSW 8 13 29.97 1015 10 16.0934 0 0
3:15 pm 15:15 Cloudy 72 22 64 18 78 78 SW 10 17 29.93 1014 10 16.0934 0 0
3:56 pm 15:56 Partly Cloudy 73 22.8 65 18.3 76 76 SSW 10 17 29.95 1014 10 16.0934 0 0
4:16 pm 16:16 Mostly Cloudy 73 23 64 18 74 74 SSW 10 17 29.92 1013 10 16.0934 0 0
4:24 pm 16:24 Partly Cloudy 73 23 64 18 74 74 SSW 8 13 29.92 1013 10 16.0934 0 0
4:32 pm 16:32 Mostly Cloudy 72 22 64 18 78 78 SSW 7 11 29.92 1013 10 16.0934 0 0
4:56 pm 16:56 Partly Cloudy 73 22.8 65 18.3 76 76 SSW 8 13 29.95 1014 10 16.0934 0 0
5:07 pm 17:07 Mostly Cloudy 72 22 64 18 78 78 SSW 7 11 29.92 1013 10 16.0934 0 0
5:47 pm 17:47 Partly Cloudy 72 22 64 18 78 78 SW 7 11 29.92 1013 10 16.0934 0 0
5:56 pm 17:56 Partly Cloudy 72 22.2 65 18.3 79 79 SSW 6 9 29.95 1014 10 16.0934 0 0
6:07 pm 18:07 Mostly Cloudy 72 22 64 18 78 78 S 6 9 29.92 1013 10 16.0934 0 0
6:39 pm 18:39 Partly Cloudy 70 21 64 18 83 83 S 3 6 29.93 1013 10 16.0934 0 0
6:56 pm 18:56 Mostly Sunny 69 20.6 65 18.3 87 87 S 5 7 29.96 1014 10 16.0934 0 0
7:56 pm 19:56 Clear 66 18.9 66 18.9 100 100 SSW 6 9 29.97 1015 10 16.0934 0 0
8:56 pm 20:56 Clear 65 18.3 65 18.3 100 100 SSE 5 7 29.96 1015 10 16.0934 0 0
9:56 pm 21:56 Clear with Mist and Fog 60 15.6 60 15.6 100 100 ENE 5 7 29.96 1015 5 8.0467 0 0
10:56 pm 22:56 Clear with Mist and Fog 60 15.6 60 15.6 100 100 S 5 7 29.98 1015 4 6.43736 0 0
11:56 pm 23:56 Clear with Mist and Fog 59 15 59 15 100 100 E 3 6 29.97 1015 2.5 4.02335 0 0

Powered by AerisWeather